FW7645 Weather Reports


Display with metric or nautical units.
time (UTC)temp
F
wind
direction
speed
MPH
gust
MPH
rain 1hr
in
rain 24hr
in
rain mn
in
humidity
%
barometer
mb
20260503200036 57 288 3.0 11.0 0.00 0.00 0.00 35 1013.5
20260503194538 57 256 4.0 10.0 0.00 0.00 0.00 34 1013.6
20260503193039 57 295 3.0 9.0 0.00 0.00 0.00 36 1013.6
20260503191538 56 13 2.0 13.0 0.00 0.00 0.00 37 1013.8
20260503190046 57 209 3.0 9.0 0.00 0.00 0.00 35 1014.1
20260503184535 56 32 4.0 9.0 0.00 0.00 0.00 37 1014.2
20260503183040 55 0 3.0 8.0 0.00 0.00 0.00 38 1014.3
20260503181539 55 268 2.0 12.0 0.00 0.00 0.00 37 1014.5
20260503180049 54 278 2.0 10.0 0.00 0.00 0.00 39 1014.5
20260503174538 53 20 3.0 8.0 0.00 0.00 0.00 37 1014.6
20260503173051 53 288 3.0 8.0 0.00 0.00 0.00 38 1014.7
20260503171543 55 226 3.0 9.0 0.00 0.00 0.00 37 1014.5
20260503081545 37 257 1.0 4.0 0.00 0.00 0.00 67 1014.6
20260503071542 38 0 1.0 5.0 0.00 0.00 0.00 65 1014.4
20260503054541 39 0 0.0 3.0 0.00 0.02 0.00 64 1014.4
20260503053037 39 0 0.0 2.0 0.00 0.02 0.00 64 1014.5
20260503051539 39 143 0.0 1.0 0.00 0.02 0.00 64 1014.6
20260503050041 40 0 0.0 1.0 0.00 0.02 0.00 62 1014.7
20260503044538 40 0 0.0 1.0 0.00 0.06 0.00 64 1014.8
20260503043037 40 0 0.0 1.0 0.00 0.06 0.00 65 1014.7
20260503041537 40 0 0.0 1.0 0.00 0.06 0.00 61 1014.8
20260503040044 41 0 0.0 2.0 0.00 0.06 0.00 61 1014.8
20260503034540 41 0 0.0 3.0 0.00 0.06 0.06 61 1014.9
20260503033044 41 297 0.0 2.0 0.00 0.06 0.06 61 1015.0
20260503031535 42 265 0.0 1.0 0.00 0.06 0.06 62 1015.1
20260503030038 42 274 0.0 3.0 0.00 0.06 0.06 62 1015.0
20260503024539 42 255 0.0 5.0 0.00 0.07 0.06 63 1015.2
20260503023037 42 0 0.0 2.0 0.00 0.07 0.06 64 1015.2
20260503021547 42 0 1.0 3.0 0.00 0.07 0.06 64 1015.1
20260503020047 42 260 1.0 3.0 0.00 0.07 0.06 67 1015.0
20260503014606 42 0 0.0 2.0 0.00 0.07 0.06 69 1015.0
20260503013039 42 0 0.0 1.0 0.00 0.07 0.06 70 1015.1
20260503011542 42 112 0.0 1.0 0.00 0.07 0.06 71 1014.9
20260503010048 42 125 0.0 1.0 0.00 0.07 0.06 71 1014.8
20260503004606 43 0 0.0 1.0 0.00 0.10 0.06 71 1014.6
20260503003038 43 0 0.0 3.0 0.00 0.10 0.06 69 1014.5
20260503001535 43 99 1.0 4.0 0.00 0.10 0.06 68 1014.4
20260503000041 43 0 0.0 4.0 0.00 0.10 0.06 67 1014.5
20260502234540 44 0 0.0 3.0 0.00 0.11 0.06 67 1014.3
20260502233034 44 268 1.0 3.0 0.00 0.11 0.06 67 1014.3
20260502231540 44 226 0.0 5.0 0.00 0.11 0.06 67 1014.1
20260502230040 44 314 0.0 6.0 0.00 0.11 0.06 68 1014.2
20260502224535 44 274 0.0 2.0 0.00 0.11 0.06 67 1014.1
20260502223038 45 0 0.0 2.0 0.00 0.11 0.06 68 1014.0
20260502221534 45 280 0.0 3.0 0.00 0.11 0.06 67 1014.0
20260502220035 45 0 0.0 1.0 0.00 0.11 0.06 69 1014.0
20260502214540 44 42 1.0 4.0 0.00 0.13 0.06 69 1014.0
20260502213039 44 0 0.0 3.0 0.00 0.13 0.06 70 1014.1
20260502211543 44 0 1.0 2.0 0.00 0.13 0.06 69 1014.0
20260502210040 44 0 0.0 2.0 0.00 0.13 0.06 71 1013.8
20260502204540 44 0 0.0 3.0 0.00 0.19 0.06 71 1014.0
20260502203039 44 276 2.0 5.0 0.00 0.19 0.06 69 1014.0
20260502201540 45 44 1.0 7.0 0.00 0.19 0.06 68 1014.0